星链-32267 (STARLINK-32267)

导读 | 星芒AI

STARLINK-32267 是 SpaceX Starlink 项目中的一颗低轨通信卫星,属于第三代星链卫星(v1.5 或 v2 版本)。它于2023年发射,运行在约550公里高度的近地轨道,旨在为全球用户提供高速互联网服务。该卫星采用先进推进系统和激光通信技术,提高网络效率与稳定性。Starlink 卫星群由数千颗卫星组成,致力于实现全球覆盖,尤其关注偏远地区网络接入。STARLINK-32267 的正常运行对提升 Starlink 网络性能具有重要意义。

基本信息
目录编号:
60363
目录名称:
STARLINK-32267
国际标识:
2024-138J
轨道中心:
EARTH
卫星名称:
星链-32267 (STARLINK-32267)
卫星全名:
星链-32267 (STARLINK-32267)
卫星状态:
在轨 (已飞行456 天)
发射日期:
2024-08-04 UTC
国别 :
美国 (US)
星等 :
--
轨道信息
数据来源 国际轨道数据
星历时间: 2025-11-02T17:13:02+0800
1天前
查看轨道信息
半长轴: 6853.399km
偏心率: 0.0001442
轨道倾角: 53.161°
近地点辐角 102.979°
升交点赤经 181.130°
平近点角 257.137°
近地点: 474.275km
远地点: 476.253km
周期: 94.106分钟
每日圈数: 15.301846
详细信息
卫星平台:
Starlink v2.0 mini
运营商:
太空探索技术公司
运营商所在国:
美国
制造商(研发单位):
太空探索技术公司
制造商所在国:
美国
使用方式:
暂无
卫星简介
星链(Starlink)计划是由太空探索技术公司(SpaceX)提出的一个巨型低轨卫星互联网星座项目,计划在2019年至2024年间在太空搭建由约1.2万颗卫星组成的“星链”网络,其中1584颗将部署在地球上空550千米处的近地轨道,并从2020年开始工作。该卫星仍在工作。
2D轨道图
3D轨道图
轨道高度分析图
轨道倾角分析图
轨道综合分析图
查看轨道综合分析图